This demonstration page uses our WeatherBlox Daily Observations layout. Learn more.

Left ArrowRight Arrow

Hourly Observations for July 22, 2019

Temp ( °F °C ) Dew Point ( °F °C ) Humidity (%) Winds ( mph kmh ) Pressure ( in mb ) Visibility ( mi km ) Precip ( " mm )
12:15 am 00:15 Clear 72 22 71 21.6 98 98 N N/A 29.90 1013 10 16 N/A
12:35 am 00:35 Partly Cloudy 72 22.1 71 21.7 98 98 S 3 6 29.91 1013 10 16 N/A
12:55 am 00:55 Cloudy 72 22.3 71 21.9 98 98 S 5 7 29.91 1013 10 16 N/A
1:15 am 01:15 Clear 73 22.5 71 21.9 96 96 S 3 6 29.91 1013 10 16 N/A
1:35 am 01:35 Partly Cloudy 73 22.5 71 21.9 96 96 SW 5 7 29.91 1013 10 16 0.01 0.25
1:55 am 01:55 Partly Cloudy 72 22.3 71 21.9 98 98 N N/A 29.88 1012 10 16 0.01 0.25
2:15 am 02:15 Clear 72 22.4 72 22 98 98 NNW 3 6 29.88 1012 10 16 N/A
2:35 am 02:35 Clear 72 22.2 71 21.9 98 98 N N/A 29.88 1012 10 16 N/A
2:55 am 02:55 Partly Cloudy 72 22.4 72 22 98 98 W 5 7 29.88 1012 10 16 0.01 0.25
3:15 am 03:15 Partly Cloudy with Light Rain 73 22.5 72 22 97 97 SW 5 7 29.88 1012 10 16 N/A
3:35 am 03:35 Clear 72 22.4 71 21.9 97 97 SSW 3 6 29.88 1012 10 16 N/A
3:55 am 03:55 Mostly Cloudy 72 22.3 71 21.9 98 98 N N/A 29.87 1011 10 16 N/A
4:15 am 04:15 Partly Cloudy 72 22.2 71 21.8 98 98 N N/A 29.87 1011 10 16 0.01 0.25
4:35 am 04:35 Partly Cloudy 72 22.4 71 21.9 97 97 N N/A 29.86 1011 10 16 0.01 0.25
4:55 am 04:55 Partly Cloudy 72 22.2 71 21.8 98 98 S 3 6 29.87 1011 10 16 0.01 0.25
5:15 am 05:15 Partly Cloudy 72 22.2 71 21.7 97 97 S 3 6 29.87 1011 10 16 N/A
5:35 am 05:35 Partly Cloudy 72 22.2 71 21.7 97 97 SW 5 7 29.87 1011 10 16 N/A
5:55 am 05:55 Mostly Cloudy 72 22.2 71 21.8 98 98 WSW 3 6 29.87 1011 10 16 N/A
6:15 am 06:15 Partly Cloudy 72 22.1 71 21.7 98 98 WSW 3 6 29.88 1012 7 11 0.01 0.25
6:35 am 06:35 Cloudy with Mist and Fog 72 22.2 71 21.9 98 98 WSW 3 6 29.88 1012 7 11 0.01 0.25
6:55 am 06:55 Cloudy 72 22.3 71 21.9 98 98 WSW 3 6 29.89 1012 7 11 0.01 0.25
7:15 am 07:15 Cloudy 72 22.4 71 21.9 97 97 N N/A 29.89 1012 10 16 N/A
7:35 am 07:35 Cloudy 73 22.5 72 22 97 97 SW 3 6 29.89 1012 10 16 N/A
7:55 am 07:55 Cloudy 73 22.8 72 22.2 96 96 WSW 3 6 29.89 1012 10 16 N/A
8:15 am 08:15 Cloudy 73 22.9 72 22.3 96 96 SW 3 6 29.89 1012 10 16 N/A
8:35 am 08:35 Cloudy 73 23 72 22.3 96 96 W 3 6 29.90 1012 10 16 N/A
8:55 am 08:55 Cloudy 74 23.1 72 22.2 95 95 W 3 6 29.90 1012 10 16 0.01 0.25
9:15 am 09:15 Cloudy with Mist and Fog 73 22.8 71 21.8 94 94 NW 8 13 29.90 1012 4 6 N/A
9:35 am 09:35 Cloudy with Light Rain 72 22.4 71 21.7 96 96 W 3 6 29.90 1012 2 3 N/A
9:55 am 09:55 Cloudy 73 22.7 71 21.8 95 95 W 5 7 29.90 1012 10 16 N/A
10:15 am 10:15 Cloudy 73 22.9 71 21.8 94 94 N N/A 29.90 1012 7 11 N/A
10:35 am 10:35 Cloudy 74 23.4 72 22 92 92 N N/A 29.90 1012 10 16 N/A
10:55 am 10:55 Cloudy with Light Rain 72 22.4 71 21.4 94 94 N 8 13 29.90 1012 7 11 N/A
11:15 am 11:15 Cloudy with Light Rain 72 22.1 70 21.1 94 94 N 10 17 29.90 1013 7 11 0.01 0.25
11:35 am 11:35 Cloudy 72 22.1 69 20.8 92 92 N 7 11 29.90 1013 7 11 0.01 0.25
12:15 pm 12:15 Cloudy 71 21.9 69 20.3 91 91 N 10 17 29.91 1013 10 16 N/A
12:35 pm 12:35 Cloudy 72 22.1 69 20.6 91 91 N 7 11 29.91 1013 10 16 N/A
12:55 pm 12:55 Cloudy 71 21.6 68 20 91 91 N 8 13 29.92 1013 10 16 N/A
1:15 pm 13:15 Cloudy 71 21.7 68 20.1 91 91 N 5 7 29.91 1013 10 16 N/A
1:35 pm 13:35 Cloudy with Drizzle 70 21.2 68 19.9 92 92 NNE 12 19 29.91 1013 10 16 N/A
1:55 pm 13:55 Cloudy with Light Rain 70 21.3 68 20 92 92 N 6 9 29.91 1013 10 16 N/A
2:15 pm 14:15 Cloudy with Light Rain 71 21.4 68 19.9 91 91 N 8 13 29.92 1013 10 16 N/A
2:35 pm 14:35 Cloudy 71 21.9 68 20.1 90 90 N 9 15 29.92 1013 10 16 N/A
2:55 pm 14:55 Cloudy 72 22.1 68 19.9 87 87 N 7 11 29.92 1013 10 16 N/A
3:15 pm 15:15 Cloudy with Light Rain 72 22.1 67 19.6 86 86 NNE 8 13 29.92 1013 10 16 N/A
3:35 pm 15:35 Cloudy with Light Rain 72 22.2 68 19.8 86 86 N N/A 29.92 1013 10 16 N/A
3:55 pm 15:55 Cloudy with Light Rain 72 22.2 68 20.2 89 89 N 5 7 29.93 1014 10 16 0.01 0.25
4:15 pm 16:15 Cloudy with Light Rain 72 22.1 68 19.8 87 87 N 6 9 29.93 1014 10 16 N/A
4:35 pm 16:35 Cloudy with Light Rain 71 21.5 68 19.9 91 91 NNW 6 9 29.93 1014 10 16 N/A
4:55 pm 16:55 Cloudy with Light Rain 70 21.2 67 19.7 91 91 NNW 7 11 29.94 1014 10 16 N/A
5:15 pm 17:15 Cloudy with Light Rain 70 21.1 67 19.6 91 91 N 7 11 29.94 1014 10 16 N/A
5:35 pm 17:35 Mostly Cloudy with Light Rain 70 21 67 19.7 92 92 N 7 11 29.94 1014 10 16 N/A
5:55 pm 17:55 Cloudy with Light Rain 70 20.9 67 19.7 93 93 NNW 6 9 29.94 1014 10 16 N/A
6:15 pm 18:15 Cloudy with Light Rain 70 20.9 67 19.7 93 93 NNW 13 20 29.94 1014 10 16 N/A
6:35 pm 18:35 Mostly Cloudy 70 20.9 67 19.5 92 92 NW 7 11 29.94 1014 10 16 N/A
6:55 pm 18:55 Cloudy 69 20.8 67 19.3 91 91 N 8 13 29.93 1014 10 16 N/A
7:15 pm 19:15 Mostly Cloudy 69 20.8 67 19.2 91 91 NNW 6 9 29.94 1014 10 16 0.01 0.25
7:35 pm 19:35 Mostly Cloudy 70 21.1 67 19.6 91 91 NNW 7 11 29.94 1014 10 16 0.01 0.25
7:55 pm 19:55 Sunny 71 21.4 67 19.5 89 89 NNW 6 9 29.95 1014 10 16 0.01 0.25
8:15 pm 20:15 Sunny 71 21.7 67 19.4 87 87 NW 7 11 29.96 1015 10 16 N/A
8:35 pm 20:35 Sunny 70 21.1 67 19.3 90 90 NW 3 6 29.96 1015 10 16 N/A
8:55 pm 20:55 Partly Cloudy 69 20.5 66 19.1 92 92 NNW 3 6 29.97 1015 10 16 N/A
9:55 pm 21:55 Mostly Cloudy 68 19.9 67 19.2 96 96 N N/A 29.98 1015 10 16 N/A
10:15 pm 22:15 Partly Cloudy 68 19.9 65 18.6 92 92 NNW 6 9 29.99 1016 10 16 N/A
10:35 pm 22:35 Partly Cloudy 68 19.8 62 16.8 83 83 NNW 7 11 30.00 1016 10 16 N/A
10:55 pm 22:55 Partly Cloudy 66 19.1 62 16.8 87 87 NNW 5 7 30.01 1016 10 16 N/A
11:15 pm 23:15 Partly Cloudy 66 18.9 61 16.3 85 85 NNW 5 7 30.01 1016 10 16 N/A
11:35 pm 23:35 Partly Cloudy 65 18.5 60 15.8 84 84 NNW 6 9 30.01 1016 10 16 N/A
11:55 pm 23:55 Mostly Cloudy 65 18.3 60 15.4 83 83 NNW 5 7 30.00 1016 10 16 N/A

Powered by AerisWeather